Flight Track Log - Related Links

Times and Time Zones

All times are in EDT time to prevent confusion due to time zone crossing. See the SKW6492 flight status page for this flight to view local times or setup timezone preferences in your user account.

Time Position Orientation Groundspeed Altitude Reporting Facility
EDT Latitude Longitude Course Direction KTS MPH feet Rate Location/Type
Wed 11:28:30 PM 39.9333 -104.6833 348° North 196 226 7,800  Level Denver TRACON
Wed 11:29:18 PM 39.9833 -104.6833 360° North 237 273 9,300 1,440 Climbing Denver TRACON
Wed 11:30:00 PM 40.2708 -104.8029 347° North  Level FlightAware Approximate
Wed 11:30:10 PM 40.0400 -104.6603 17° North 266 306 10,200  Level Denver Center
Wed 11:31:00 PM 40.3763 -104.8365 346° North  Level FlightAware Approximate
Wed 11:31:11 PM 40.1289 -104.6772 352° North 314 361 12,000  Level Denver Center
Wed 11:32:00 PM 40.4815 -104.8716 346° North  Level FlightAware Approximate
Wed 11:32:13 PM 40.2206 -104.7011 349° North 315 362 14,600  Level Denver Center
Wed 11:33:00 PM 40.5873 -104.9035 348° North  Level FlightAware Approximate
Wed 11:33:15 PM 40.3058 -104.7236 349° North 309 356 16,500  Level Denver Center
Wed 11:34:16 PM 40.3964 -104.7472 349° North 328 377 17,900 1,512 Climbing Denver Center
Wed 11:35:18 PM 40.4936 -104.7744 348° North 330 380 19,600 1,548 Climbing Denver Center
Wed 11:36:20 PM 40.5797 -104.7981 348° North 335 386 21,100 1,355 Climbing Denver Center
Wed 11:37:22 PM 40.6856 -104.8250 349° North 340 391 22,400 1,073 Climbing Denver Center
Wed 11:38:23 PM 40.7831 -104.8486 350° North 353 406 23,300 829 Climbing Denver Center
Wed 11:39:25 PM 40.8797 -104.8939 341° North 364 419 24,100 774 Climbing Denver Center
Wed 11:40:27 PM 40.9794 -104.9447 339° North 378 435 24,900 829 Climbing Denver Center
Wed 11:41:28 PM 41.0944 -105.0017 340° North 385 443 25,800 829 Climbing Denver Center
Wed 11:42:30 PM 41.1931 -105.0483 340° North 391 450 26,600 726 Climbing Denver Center
Wed 11:43:32 PM 41.2933 -105.0992 339° North 398 458 27,300 780 Climbing Denver Center
Wed 11:44:33 PM 41.4106 -105.1592 339° North 401 461 28,200 829 Climbing Denver Center
Wed 11:45:35 PM 41.5114 -105.2097 339° North 402 463 29,000 780 Climbing Denver Center
Wed 11:46:36 PM 41.6186 -105.2950 329° Northwest 410 472 29,800 683 Climbing Denver Center
Wed 11:47:38 PM 41.7017 -105.3853 321° Northwest 407 468 30,400 532 Climbing Denver Center
Wed 11:48:40 PM 41.7861 -105.4767 321° Northwest 406 467 30,900 488 Climbing Denver Center
Wed 11:49:41 PM 41.8864 -105.5839 321° Northwest 409 471 31,400 488 Climbing Denver Center
Wed 11:50:43 PM 41.9728 -105.6783 321° Northwest 412 474 31,900 293 Climbing Denver Center
Wed 11:51:44 PM 42.0714 -105.7867 321° Northwest 413 475 32,000 49 Climbing Denver Center
Wed 11:52:46 PM 42.1578 -105.8828 320° Northwest 416 479 32,000  Level Denver Center
Wed 11:53:48 PM 42.2453 -105.9811 320° Northwest 423 487 32,000  Level Denver Center
Wed 11:54:49 PM 42.3489 -106.0944 321° Northwest 425 489 32,000  Level Denver Center
Wed 11:55:51 PM 42.4378 -106.1933 321° Northwest 430 495 32,000  Level Denver Center
Wed 11:56:52 PM 42.5406 -106.3083 321° Northwest 430 495 32,000  Level Denver Center
Wed 11:57:54 PM 42.6289 -106.4081 320° Northwest 431 496 32,000  Level Denver Center
Wed 11:58:55 PM 42.7172 -106.5081 320° Northwest 431 496 32,000  Level Denver Center
Wed 11:59:57 PM 42.8208 -106.6239 321° Northwest 431 496 32,000  Level Denver Center
Thu 12:00:58 AM 42.9069 -106.7231 320° Northwest 428 493 32,000  Level Denver Center
Thu 12:01:59 AM 43.0081 -106.8369 321° Northwest 423 487 32,000  Level Denver Center
Thu 12:03:01 AM 43.0936 -106.9358 320° Northwest 421 484 32,000  Level Denver Center
Thu 12:03:45 AM 43.1503 -107.0047 318° Northwest 420 483 32,000  Level Salt Lake Center
Thu 12:04:47 AM 43.2397 -107.1075 320° Northwest 420 483 32,000  Level Salt Lake Center
Thu 12:05:48 AM 43.3467 -107.2300 320° Northwest 420 483 32,000  Level Salt Lake Center
Thu 12:06:49 AM 43.4364 -107.3347 320° Northwest 421 484 32,000  Level Salt Lake Center
Thu 12:07:51 AM 43.5269 -107.4386 320° Northwest 422 486 32,000 -244 Level Salt Lake Center
Thu 12:08:52 AM 43.6172 -107.5431 320° Northwest 424 488 31,500 -1,171 Descending Salt Lake Center
Thu 12:09:54 AM 43.7097 -107.6514 320° Northwest 433 498 29,600 -2,000 Descending Salt Lake Center
Thu 12:10:55 AM 43.8058 -107.7619 320° Northwest 444 511 27,400 -2,164 Descending Salt Lake Center
Thu 12:11:56 AM 43.8992 -107.8694 320° Northwest 442 509 25,200 -2,146 Descending Salt Lake Center
Thu 12:12:58 AM 43.9878 -107.9725 320° Northwest 421 484 23,000 -2,146 Descending Salt Lake Center
Thu 12:13:59 AM 44.0722 -108.0706 320° Northwest 401 461 20,800 -2,390 Descending Salt Lake Center
Thu 12:15:01 AM 44.1731 -108.1936 319° Northwest 401 461 18,100 -2,293 Descending Salt Lake Center
Thu 12:16:02 AM 44.2586 -108.2928 320° Northwest 401 461 16,100 -2,066 Descending Salt Lake Center
Thu 12:17:03 AM 44.3372 -108.3864 320° Northwest 391 450 13,900 -2,195 Descending Salt Lake Center
Thu 12:18:05 AM 44.4092 -108.4714 320° Northwest 367 422 11,600 -1,854 Descending Salt Lake Center
Thu 12:19:06 AM 44.4761 -108.5522 319° Northwest 343 395 10,100 -780 Descending Salt Lake Center
Thu 12:20:08 AM 44.5331 -108.6186 320° Northwest 301 346 10,000 -98 Descending Salt Lake Center
Thu 12:21:09 AM 44.5828 -108.6778 320° Northwest 264 304 9,900 -639 Descending Salt Lake Center
Thu 12:22:10 AM 44.6264 -108.7247 323° Northwest 230 265 8,700 -927 Descending Salt Lake Center
Thu 12:23:12 AM 44.6511 -108.7839 300° West 218 251 8,000 -634 Descending Salt Lake Center
Thu 12:24:13 AM 44.6172 -108.8525 235° Southwest 218 251 7,400 -541 Descending Salt Lake Center
Thu 12:25:14 AM 44.5775 -108.9231 232° Southwest 206 237 6,900 -738 Descending Salt Lake Center
Thu 12:26:15 AM 44.5525 -108.9697 233° Southwest 176 203 5,900 -984 Descending Salt Lake Center

Login

Don't have an account? Register now (free) for customized features, flight alerts, and more!